Temp
57 58 58 58 58 58 58 57 57 57 57 57 58 58 59 59 58 55 50 52 52 47 51 58 62 57 58 55 54 57 58 59 55 52 50 49 49 51 49 51 49 50 48 46 45 44 47 62 65 59 59 60 64 64
57 57 57 57 57 57 57 57 57 56 57 57 58 58 58 58 57 55 47 53 54 50 54 56 62 66 65 64 57 52 55 53 55 53 49 48 49 48 46 48 52 51 53 51 52 51 57 59 59 61 62 62 63 64
57 57 57 57 57 57 57 56 56 56 56 57 57 57 57 57 57 56 49 48 50 48 52 54 58 61 60 64 65 57 54 56 54 54 50 49 49 49 47 48 49 53 53 51 53 55 57 61 62 64 65 64 65 66
56 57 57 57 56 56 56 56 56 57 56 56 57 57 57 57 56 56 49 48 49 48 45 54 64 59 63 62 64 63 61 56 54 54 50 48 49 52 48 51 51 55 55 51 51 54 58 62 63 64 66 67 67 67
56 56 56 56 56 56 56 56 56 56 56 56 56 56 56 56 55 52 52 49 50 50 46 49 56 58 60 61 66 62 60 56 53 53 49 50 48 50 46 48 47 54 55 52 51 57 57 58 63 66 65 65 65 65
56 56 56 56 56 56 56 56 56 56 56 56 56 56 56 55 54 48 49 50 51 50 47 45 53 56 61 63 62 59 57 53 51 52 49 49 51 52 47 44 53 54 56 58 58 57 60 62 65 67 65 65 67 65
55 55 55 55 55 55 55 55 55 55 55 55 55 55 55 54 50 48 50 51 50 50 48 46 47 55 58 57 56 56 54 52 53 48 49 49 51 50 45 45 57 58 58 59 60 62 59 62 62 65 66 67 65 66
55 55 55 55 55 55 55 55 55 55 55 55 54 54 54 54 52 48 51 52 51 48 48 43 45 51 55 53 54 51 51 51 51 50 48 49 49 47 46 51 54 57 59 60 61 61 61 61 61 62 63 64 63 63
55 54 54 55 55 55 55 55 55 55 54 54 54 54 50 48 47 51 58 55 50 52 45 43 41 45 54 49 49 51 50 49 49 49 48 51 45 46 52 54 55 57 59 61 60 60 61 60 60 61 62 63 60 60
54 54 54 54 54 54 54 55 55 54 54 54 50 48 47 50 59 58 51 49 49 47 45 43 44 45 50 48 48 49 47 46 46 49 50 46 46 52 53 54 56 59 59 59 58 55 56 56 59 59 60 60 59 58
53 54 54 54 54 54 54 55 54 53 53 49 46 47 50 56 52 48 45 44 44 42 43 45 44 45 52 49 47 47 45 44 44 48 49 43 44 50 53 54 54 55 57 59 62 62 63 59 59 59 59 59 57 56
52 53 53 54 54 55 55 54 53 47 49 49 49 50 49 49 45 43 42 43 42 42 46 45 48 47 49 49 48 47 46 45 43 49 47 43 47 51 54 56 56 58 60 61 62 61 60 59 58 57 55 54 54 54
52 53 53 54 54 55 55 54 53 53 51 51 47 46 46 45 41 41 39 40 40 46 49 49 49 49 48 48 45 46 46 44 48 45 45 47 49 52 53 55 56 58 60 60 59 59 58 56 56 55 53 54 54 53
52 52 52 53 54 54 54 54 54 52 49 47 43 36 41 40 42 43 45 47 51 51 51 50 48 48 46 47 45 46 47 47 43 42 46 46 50 52 54 57 58 57 57 57 56 56 55 54 53 54 53 52 51 51
52 52 52 52 54 54 54 53 53 52 49 43 46 40 40 46 46 47 49 49 52 51 53 52 49 49 45 47 46 47 45 43 45 45 46 49 52 53 56 57 57 56 55 54 54 53 52 52 51 50 51 50 51 52
52 52 50 53 54 54 53 52 51 51 46 42 43 43 44 42 47 47 52 52 53 53 51 51 48 48 45 45 45 45 44 43 45 47 50 50 52 54 54 56 56 56 54 52 52 51 51 49 49 48 50 53 52 52
52 47 53 53 54 53 52 50 49 47 46 44 43 42 41 42 44 45 49 52 54 50 48 47 48 47 45 43 42 45 44 47 51 51 51 51 53 55 55 55 55 54 52 51 50 50 49 49 49 47 46 49 52 52
47 50 53 53 51 51 49 49 47 46 43 45 40 40 41 43 46 45 47 49 50 47 49 50 50 44 43 42 42 46 47 49 50 49 50 51 52 53 54 54 54 53 52 51 50 49 48 47 45 45 46 47 47 48
49 50 53 53 51 48 45 45 47 42 43 43 41 40 41 42 44 47 47 47 47 48 51 47 46 43 43 44 45 46 47 49 50 49 50 52 52 52 52 54 54 52 52 50 49 48 47 47 46 45 45 45 44 45
53 52 52 52 52 46 43 44 46 42 38 39 39 39 40 42 45 45 48 45 45 45 44 44 44 46 47 48 48 50 50 48 48 49 49 50 51 52 52 53 52 52 50 49 48 46 47 47 46 46 46 45 45 44
51 50 51 50 47 45 42 41 39 39 39 38 40 39 40 40 40 41 42 43 42 42 42 44 46 49 49 50 51 51 52 50 50 52 52 51 52 52 52 54 54 51 50 49 49 47 46 47 47 46 46 46 46 46
47 52 47 49 45 45 40 40 40 44 40 40 40 40 39 39 39 40 41 41 40 43 44 46 47 49 49 49 50 52 58 55 52 50 48 49 50 50 50 51 52 51 50 49 50 49 49 48 47 47 47 47 46 47
51 50 46 46 43 39 35 40 41 39 36 38 40 38 39 39 41 43 40 41 43 45 48 48 49 51 51 52 51 51 51 51 50 50 51 51 51 50 50 51 52 52 50 51 52 51 50 47 47 48 48 48 48 49
50 45 42 41 40 35 42 40 38 38 38 37 37 38 40 40 42 40 39 41 45 45 44 47 47 47 45 47 47 49 52 49 49 50 50 50 50 50 51 52 52 54 54 54 53 52 51 51 48 50 50 50 50 49
34 37 40 33 39 38 40 40 41 40 42 44 39 39 40 41 39 39 40 41 43 45 46 47 45 45 45 46 46 48 51 50 50 50 53 52 52 52 53 54 54 55 56 54 54 54 54 53 53 53 53 52 51 52
34 40 36 41 39 36 41 41 43 42 43 43 43 42 41 40 38 38 40 43 45 47 47 48 48 47 48 48 49 49 51 53 53 52 54 54 55 54 54 54 54 54 57 58 56 56 56 56 55 54 54 54 47 51
35 38 40 42 44 44 41 40 41 41 39 38 40 44 43 40 39 42 45 48 48 50 51 53 52 51 50 49 50 51 52 53 54 56 55 54 55 57 57 56 54 57 58 59 59 60 59 58 57 57 56 57 56 57
43 38 35 39 38 39 38 38 39 39 40 44 45 43 42 43 43 48 50 52 53 54 54 55 54 52 53 53 53 54 55 53 54 54 53 54 54 56 59 60 59 49 59 61 61 61 61 60 59 59 58 57 58 58
40 44 42 40 41 42 43 42 43 45 48 46 43 43 44 48 50 51 53 54 56 54 54 54 53 52 53 53 52 54 53 54 54 54 53 53 55 56 57 58 59 58 58 59 49 55 59 60 60 60 61 59 59 59
42 45 43 44 42 42 46 47 47 48 49 49 49 48 48 50 53 55 54 55 54 53 53 53 52 52 51 51 52 53 54 54 56 57 55 55 56 59 59 60 59 58 58 60 60 59 49 57 55 59 59 60 60 58
48 45 44 45 45 47 50 51 51 52 51 49 50 49 49 51 53 55 55 54 54 53 53 52 52 53 54 55 55 56 56 58 58 59 60 59 60 59 59 59 59 59 60 60 59 60 60 60 60 61 62 61 61 58
47 46 46 46 46 48 51 50 49 48 48 49 49 50 49 48 48 51 53 53 52 52 50 53 56 56 56 57 58 58 50 57 59 59 60 62 62 62 62 60 59 61 61 59 60 61 62 60 60 59 58 60 60 60
49 49 49 49 49 47 48 49 48 47 48 48 49 49 50 50 49 52 55 55 54 53 54 54 55 56 58 59 57 56 53 56 50 43 45 47 49 53 60 63 61 60 59 58 58 59 59 59 58 59 59 60 59 58
MSLP
1016.69 1017.00 1017.29 1017.52 1017.62 1017.72 1017.82 1018.00 1018.08 1018.07 1018.01 1017.92 1017.71 1017.42 1017.13 1016.92 1016.66 1016.40 1016.03 1015.62 1015.70 1015.37 1013.40 1012.25 1011.41 1010.88 1010.79 1011.02 1011.21 1011.17 1011.20 1011.01 1011.50 1012.43 1013.10 1013.08 1012.86 1012.60 1012.45 1011.96 1011.96 1012.52 1012.87 1013.18 1013.32 1012.60 1011.35 1010.13 1009.91 1010.01 1009.94 1010.00 1010.18 1010.52
1016.05 1016.41 1016.73 1016.95 1017.12 1017.29 1017.53 1017.75 1017.81 1017.79 1017.79 1017.76 1017.59 1017.30 1017.03 1016.93 1016.71 1016.42 1016.38 1015.75 1015.66 1015.70 1013.72 1012.43 1011.36 1010.71 1010.50 1010.56 1011.02 1011.55 1011.84 1011.95 1012.08 1012.72 1013.43 1013.50 1013.69 1013.54 1013.36 1012.82 1012.09 1012.47 1012.22 1012.48 1012.86 1011.96 1011.04 1010.41 1010.04 1009.82 1009.79 1009.89 1010.34 1010.49
1015.46 1015.86 1016.19 1016.41 1016.64 1016.95 1017.27 1017.49 1017.56 1017.53 1017.55 1017.55 1017.40 1017.18 1016.98 1016.85 1016.69 1016.61 1016.59 1016.28 1015.91 1015.60 1013.77 1012.54 1011.02 1010.22 1009.99 1010.11 1010.23 1011.08 1011.76 1011.72 1012.08 1012.25 1013.26 1013.98 1014.21 1013.86 1013.89 1013.22 1012.57 1012.06 1011.98 1012.50 1012.53 1011.86 1011.28 1010.70 1010.31 1009.93 1009.81 1010.15 1010.38 1010.53
1014.84 1015.27 1015.63 1015.92 1016.26 1016.65 1016.97 1017.20 1017.34 1017.25 1017.33 1017.33 1017.16 1016.99 1016.86 1016.72 1016.58 1016.48 1016.58 1016.34 1016.31 1016.01 1015.11 1012.29 1010.70 1010.43 1009.80 1009.83 1010.00 1010.25 1010.82 1011.52 1012.12 1012.65 1013.64 1014.31 1014.39 1013.74 1013.68 1013.27 1013.01 1012.20 1012.05 1012.56 1012.70 1012.08 1011.54 1010.94 1010.49 1010.24 1010.30 1010.41 1010.61 1010.73
1014.30 1014.74 1015.11 1015.43 1015.78 1016.32 1016.64 1016.90 1017.11 1017.14 1017.15 1017.09 1016.95 1016.79 1016.65 1016.49 1016.33 1016.21 1016.11 1016.04 1015.93 1016.21 1015.51 1013.51 1011.44 1010.41 1010.01 1009.84 1010.03 1010.38 1010.98 1011.88 1012.92 1013.72 1014.41 1014.56 1014.02 1014.05 1014.07 1013.81 1013.10 1011.82 1011.57 1011.91 1011.75 1011.03 1010.96 1010.82 1010.51 1010.42 1010.59 1010.73 1010.84 1010.92
1013.78 1014.23 1014.58 1015.03 1015.63 1016.03 1016.36 1016.60 1016.78 1016.92 1016.96 1016.90 1016.78 1016.61 1016.44 1016.25 1016.05 1016.04 1016.10 1015.94 1015.65 1015.76 1015.68 1014.45 1012.28 1011.23 1010.44 1010.14 1010.54 1010.99 1011.54 1012.30 1013.11 1013.81 1014.25 1014.09 1013.66 1013.59 1014.03 1013.91 1011.97 1011.36 1010.98 1010.89 1010.75 1010.58 1010.67 1010.42 1010.47 1010.45 1010.61 1010.73 1010.85 1011.01
1013.25 1013.69 1014.15 1014.76 1015.37 1015.79 1016.12 1016.34 1016.55 1016.69 1016.74 1016.68 1016.57 1016.41 1016.23 1016.09 1016.16 1016.07 1015.89 1015.72 1015.65 1015.73 1015.57 1014.92 1013.28 1011.72 1011.13 1010.92 1011.40 1011.82 1011.99 1012.58 1013.07 1013.97 1014.22 1014.15 1013.83 1013.69 1013.92 1013.37 1011.55 1010.82 1010.57 1010.50 1010.43 1010.42 1010.88 1010.70 1010.57 1010.50 1010.62 1010.74 1010.96 1011.20
1012.80 1013.29 1013.91 1014.57 1015.13 1015.56 1015.88 1016.12 1016.32 1016.44 1016.44 1016.37 1016.25 1016.08 1015.87 1015.73 1015.76 1015.56 1014.63 1014.56 1015.47 1015.94 1015.61 1015.37 1014.09 1012.79 1011.57 1011.78 1012.25 1012.47 1012.72 1013.12 1013.53 1013.86 1014.09 1014.06 1014.08 1014.00 1013.68 1012.19 1011.34 1010.84 1010.55 1010.33 1010.38 1010.44 1010.48 1010.42 1010.68 1010.83 1010.99 1011.27 1011.52 1011.70
1012.39 1013.11 1013.78 1014.41 1014.90 1015.32 1015.69 1015.95 1016.13 1016.18 1016.16 1016.10 1015.91 1015.63 1015.58 1015.53 1015.49 1014.94 1014.56 1014.75 1014.99 1015.57 1015.59 1015.61 1014.92 1013.48 1012.22 1012.56 1012.54 1012.83 1013.04 1013.82 1014.03 1013.94 1013.98 1013.96 1014.18 1013.67 1012.24 1011.63 1011.12 1010.63 1010.44 1010.20 1010.48 1010.65 1010.78 1010.93 1011.21 1011.40 1011.54 1011.75 1011.97 1012.11
1012.28 1012.96 1013.69 1014.28 1014.75 1015.12 1015.49 1015.76 1015.89 1015.96 1015.94 1015.87 1015.87 1015.60 1015.48 1014.98 1014.62 1014.61 1014.95 1014.98 1014.96 1015.05 1015.34 1015.37 1014.80 1013.89 1013.14 1013.01 1013.20 1013.52 1013.63 1013.91 1014.09 1013.80 1013.72 1013.79 1013.60 1012.15 1011.59 1011.37 1010.99 1010.45 1010.45 1010.51 1010.72 1011.05 1011.15 1011.46 1011.71 1011.87 1012.06 1012.29 1012.44 1012.65
1012.43 1013.08 1013.70 1014.21 1014.59 1014.91 1015.25 1015.53 1015.76 1015.85 1015.66 1015.92 1015.79 1015.69 1015.15 1014.60 1014.71 1014.99 1015.22 1015.44 1015.41 1015.37 1015.04 1014.51 1014.33 1013.90 1013.16 1013.28 1013.43 1013.50 1013.72 1013.96 1014.03 1013.73 1013.71 1013.89 1013.44 1012.36 1011.77 1011.22 1010.81 1010.60 1010.62 1010.70 1010.75 1011.03 1011.41 1011.80 1012.23 1012.49 1012.67 1012.89 1013.13 1013.21
1012.74 1013.31 1013.73 1014.14 1014.41 1014.76 1015.11 1015.44 1015.71 1015.88 1015.93 1016.03 1015.93 1015.79 1015.46 1015.09 1015.32 1015.35 1015.36 1015.42 1015.20 1014.74 1014.19 1014.01 1013.64 1013.69 1013.29 1013.07 1013.27 1013.59 1013.62 1013.92 1013.76 1013.51 1013.72 1013.76 1012.94 1012.48 1012.18 1011.79 1011.51 1011.33 1011.25 1011.45 1011.53 1011.91 1012.12 1012.43 1012.72 1012.97 1013.32 1013.52 1013.65 1013.66
1013.01 1013.48 1013.84 1014.14 1014.42 1014.75 1015.04 1015.36 1015.61 1015.69 1015.81 1015.79 1015.87 1015.69 1015.61 1015.59 1015.62 1015.32 1014.94 1014.68 1014.36 1013.56 1013.27 1013.24 1013.40 1013.28 1013.35 1013.20 1013.36 1013.35 1013.49 1013.73 1013.26 1013.61 1013.52 1013.17 1012.83 1012.69 1012.52 1012.30 1012.25 1012.16 1012.02 1012.32 1012.64 1012.84 1013.04 1013.22 1013.44 1013.72 1013.87 1013.84 1013.79 1013.68
1013.28 1013.72 1014.02 1014.28 1014.53 1014.76 1015.02 1015.33 1015.53 1015.68 1015.78 1015.63 1015.70 1015.98 1015.70 1015.29 1014.85 1014.18 1013.81 1013.33 1012.79 1012.64 1012.62 1012.70 1013.02 1013.07 1013.15 1013.21 1013.32 1013.30 1013.29 1013.17 1013.42 1013.57 1013.41 1013.21 1013.12 1013.01 1012.85 1012.72 1012.52 1012.79 1012.89 1013.15 1013.40 1013.58 1013.83 1014.10 1014.28 1014.31 1014.27 1014.16 1014.00 1013.80
1013.52 1013.97 1014.24 1014.41 1014.56 1014.78 1015.07 1015.37 1015.52 1015.60 1015.56 1015.63 1015.57 1015.48 1015.28 1014.58 1014.12 1013.62 1013.22 1012.98 1012.40 1012.16 1012.26 1012.40 1012.65 1012.80 1013.19 1013.23 1013.36 1013.36 1013.40 1013.25 1013.16 1013.32 1013.41 1013.31 1013.17 1013.12 1013.06 1013.01 1012.94 1013.17 1013.45 1013.83 1014.12 1014.36 1014.57 1014.70 1014.71 1014.69 1014.65 1014.51 1014.23 1013.84
1013.78 1014.16 1014.39 1014.44 1014.68 1014.95 1015.26 1015.46 1015.49 1015.46 1015.50 1015.68 1015.69 1015.40 1015.00 1014.87 1014.16 1013.64 1013.18 1012.78 1012.29 1012.00 1011.93 1012.13 1012.67 1012.85 1013.28 1013.36 1013.52 1013.40 1013.43 1013.18 1013.31 1013.33 1013.32 1013.40 1013.36 1013.16 1013.12 1013.25 1013.30 1013.53 1013.82 1014.15 1014.40 1014.64 1014.84 1014.95 1015.04 1015.05 1014.86 1014.50 1014.33 1013.95
1013.91 1014.13 1014.23 1014.54 1014.85 1015.17 1015.40 1015.49 1015.39 1015.55 1015.57 1015.71 1015.66 1015.47 1015.50 1015.26 1014.74 1014.10 1013.58 1013.02 1012.41 1012.33 1012.62 1012.97 1013.15 1013.04 1013.45 1013.48 1013.55 1013.40 1013.23 1013.08 1013.04 1013.22 1013.24 1013.26 1013.16 1013.00 1013.08 1013.23 1013.38 1013.66 1014.03 1014.40 1014.72 1014.97 1015.12 1015.21 1015.29 1015.35 1015.25 1014.98 1014.44 1014.17
1014.13 1014.20 1014.38 1014.78 1015.08 1015.33 1015.46 1015.49 1015.61 1015.69 1015.72 1015.74 1015.93 1015.73 1015.54 1015.22 1014.77 1014.29 1013.82 1013.37 1012.89 1012.74 1012.62 1012.92 1012.93 1013.23 1013.47 1013.53 1013.45 1013.12 1013.06 1013.06 1013.22 1013.32 1013.26 1013.21 1013.19 1013.12 1013.15 1013.18 1013.28 1013.69 1014.08 1014.50 1014.89 1015.17 1015.33 1015.36 1015.67 1015.80 1015.52 1015.21 1014.87 1014.50
1014.10 1014.24 1014.65 1015.01 1015.21 1015.38 1015.59 1015.86 1015.84 1015.84 1015.82 1015.84 1015.77 1015.64 1015.39 1015.03 1014.58 1014.10 1013.95 1013.52 1013.36 1013.19 1013.01 1013.17 1013.10 1013.29 1013.28 1013.14 1013.06 1013.04 1012.97 1013.11 1013.11 1013.16 1013.05 1012.91 1012.92 1012.85 1013.02 1013.14 1013.32 1013.64 1014.01 1014.27 1014.69 1015.12 1015.35 1015.53 1015.75 1015.83 1015.68 1015.50 1015.24 1014.95
1014.40 1014.78 1015.07 1015.29 1015.28 1015.42 1015.69 1015.96 1015.92 1016.03 1016.12 1015.98 1015.78 1015.66 1015.42 1014.97 1014.36 1014.03 1013.86 1013.81 1013.73 1013.58 1013.53 1013.35 1013.10 1012.75 1012.61 1012.48 1012.52 1012.49 1012.54 1012.78 1013.01 1013.21 1013.10 1012.79 1012.56 1012.69 1012.87 1013.07 1013.16 1013.47 1013.95 1014.40 1014.70 1014.88 1015.15 1015.47 1015.71 1015.70 1015.61 1015.52 1015.34 1015.21
1015.01 1015.44 1015.46 1015.45 1015.53 1015.57 1015.87 1016.04 1016.15 1016.14 1016.04 1015.96 1015.48 1015.43 1015.08 1014.69 1014.45 1014.23 1014.06 1013.80 1014.09 1013.82 1013.39 1012.86 1012.50 1011.94 1011.93 1011.90 1011.87 1011.99 1012.28 1012.54 1012.83 1012.71 1012.67 1012.76 1012.48 1012.53 1012.69 1012.94 1013.14 1013.52 1013.84 1014.35 1014.50 1014.63 1014.89 1015.15 1015.34 1015.40 1015.45 1015.38 1015.31 1015.11
1015.35 1015.43 1015.59 1015.64 1015.69 1015.80 1016.08 1016.17 1016.20 1015.84 1015.92 1015.53 1015.27 1014.96 1014.84 1014.62 1014.22 1013.72 1013.36 1013.68 1013.34 1012.59 1012.22 1012.03 1011.71 1011.58 1011.68 1011.70 1011.61 1011.58 1011.46 1011.69 1011.93 1012.17 1012.23 1012.41 1012.44 1012.52 1012.51 1012.58 1013.03 1013.38 1013.61 1013.63 1013.74 1014.03 1014.27 1014.55 1014.77 1015.03 1015.17 1015.04 1015.00 1014.78
1015.43 1015.48 1015.61 1015.68 1015.88 1016.08 1016.39 1016.08 1015.99 1015.69 1015.65 1015.16 1014.84 1014.59 1014.25 1013.84 1013.23 1013.08 1013.04 1012.59 1011.83 1011.01 1010.62 1010.73 1010.56 1010.41 1010.73 1010.59 1010.80 1010.97 1011.13 1011.42 1011.68 1011.67 1011.57 1011.58 1011.53 1011.71 1011.84 1011.88 1011.89 1012.35 1012.75 1012.81 1012.95 1013.32 1013.65 1013.90 1014.20 1014.48 1014.56 1014.65 1014.65 1014.45
1015.58 1015.74 1015.89 1016.00 1016.13 1016.19 1016.00 1015.85 1015.68 1015.40 1015.02 1014.74 1014.44 1013.96 1013.39 1013.02 1012.81 1012.74 1012.47 1011.63 1010.69 1010.30 1010.34 1010.17 1010.23 1010.48 1010.78 1010.72 1010.75 1010.63 1010.42 1010.64 1010.76 1010.77 1010.72 1010.96 1011.13 1010.88 1010.86 1010.92 1011.00 1011.13 1011.38 1011.41 1012.09 1012.62 1013.12 1013.45 1013.61 1013.84 1014.05 1014.16 1014.14 1014.08
1016.26 1016.33 1016.32 1016.17 1016.01 1016.00 1015.50 1015.09 1014.60 1014.55 1013.95 1013.55 1013.59 1013.20 1012.69 1012.53 1012.48 1012.22 1011.76 1011.07 1010.58 1010.32 1010.09 1009.96 1010.03 1010.12 1010.30 1010.09 1010.09 1009.75 1009.61 1009.93 1010.04 1010.08 1009.62 1009.97 1010.05 1010.29 1010.40 1010.43 1010.38 1010.58 1010.92 1011.18 1011.57 1012.05 1012.43 1012.80 1012.99 1013.22 1013.42 1013.50 1013.38 1013.23
1016.03 1015.94 1016.02 1015.57 1015.44 1015.41 1014.67 1014.11 1013.75 1013.45 1013.25 1012.91 1012.59 1012.26 1012.15 1012.21 1012.03 1011.49 1011.03 1010.64 1010.37 1010.05 1009.85 1009.77 1009.78 1009.76 1009.70 1009.65 1009.65 1009.46 1009.12 1009.09 1009.30 1009.41 1009.15 1009.24 1009.30 1009.49 1009.61 1009.85 1010.06 1010.31 1010.24 1010.35 1010.68 1011.05 1011.50 1011.88 1012.20 1012.42 1012.49 1012.51 1012.64 1012.81
1015.60 1015.38 1015.30 1015.09 1014.73 1014.40 1014.08 1013.73 1013.43 1013.20 1012.89 1012.63 1012.38 1012.07 1011.84 1011.64 1011.13 1010.61 1010.24 1009.97 1009.85 1009.52 1009.44 1009.32 1009.35 1009.44 1009.47 1009.31 1009.09 1009.00 1008.87 1008.81 1008.79 1008.73 1008.70 1008.63 1008.57 1008.62 1008.78 1009.06 1009.46 1009.23 1009.42 1009.87 1010.10 1010.36 1010.66 1011.02 1011.27 1011.48 1011.61 1011.68 1011.74 1011.83
1014.89 1014.87 1014.86 1014.63 1014.48 1014.03 1013.80 1013.49 1013.14 1012.69 1012.39 1012.14 1012.13 1011.96 1011.80 1011.34 1010.67 1009.87 1009.52 1009.05 1008.72 1008.48 1008.07 1008.07 1008.34 1008.60 1008.71 1008.67 1008.62 1008.63 1008.60 1008.70 1008.65 1008.55 1008.60 1008.63 1008.64 1008.65 1008.68 1008.61 1008.53 1008.81 1009.00 1009.17 1009.42 1009.79 1010.04 1010.27 1010.52 1010.73 1010.94 1011.02 1010.93 1011.10
1014.50 1014.13 1014.13 1013.91 1013.68 1013.37 1012.85 1012.61 1012.21 1011.88 1011.74 1011.90 1012.07 1011.72 1011.39 1010.81 1009.85 1009.36 1008.85 1008.67 1008.29 1008.16 1008.00 1008.01 1008.11 1008.25 1008.47 1008.51 1008.46 1008.49 1008.60 1008.59 1008.79 1008.82 1008.68 1008.67 1008.72 1008.68 1008.62 1008.73 1008.91 1009.02 1009.16 1009.16 1009.20 1009.23 1009.50 1009.76 1009.98 1010.15 1010.30 1010.45 1010.42 1010.57
1013.45 1013.27 1013.09 1012.72 1012.54 1012.20 1011.65 1011.39 1011.37 1011.53 1011.67 1011.60 1011.54 1011.45 1010.93 1010.08 1009.19 1008.73 1008.58 1008.33 1008.14 1007.96 1007.85 1007.79 1007.96 1008.14 1008.25 1008.34 1008.44 1008.52 1008.40 1008.39 1008.40 1008.48 1008.42 1008.46 1008.37 1007.91 1007.95 1008.17 1008.39 1008.50 1008.58 1008.77 1009.04 1009.27 1009.48 1009.57 1009.77 1009.94 1009.99 1010.01 1010.05 1010.25
1012.30 1012.49 1012.35 1011.95 1011.36 1010.84 1010.70 1010.70 1010.86 1011.05 1011.19 1011.21 1011.09 1011.14 1010.58 1009.93 1009.21 1008.72 1008.46 1008.32 1008.14 1007.98 1007.92 1008.15 1008.21 1008.22 1008.10 1008.20 1008.24 1008.28 1008.24 1007.97 1007.89 1007.96 1008.12 1008.05 1007.88 1007.80 1007.93 1008.04 1008.18 1008.40 1008.57 1008.85 1009.13 1009.32 1009.49 1009.58 1009.65 1009.66 1009.58 1009.54 1009.56 1009.76
1011.66 1011.48 1011.13 1010.76 1010.52 1010.49 1010.25 1010.41 1010.68 1010.71 1010.65 1010.63 1010.52 1010.40 1010.17 1009.99 1009.56 1008.88 1008.55 1008.60 1008.58 1008.42 1008.28 1008.12 1008.04 1008.01 1007.86 1007.82 1007.84 1007.79 1007.64 1007.48 1007.40 1007.46 1007.32 1007.32 1007.41 1007.42 1007.69 1007.89 1007.92 1008.10 1008.44 1008.75 1009.04 1009.28 1009.50 1009.71 1009.96 1010.11 1009.93 1009.96 1009.83 1010.16
1010.73 1010.64 1010.49 1010.25 1010.04 1010.19 1010.19 1010.12 1010.09 1010.06 1009.94 1009.93 1009.88 1009.88 1009.79 1009.81 1009.58 1009.07 1008.73 1008.67 1008.61 1008.56 1008.52 1008.31 1008.05 1007.82 1007.61 1007.59 1007.67 1007.77 1007.70 1007.76 1007.70 1007.57 1007.37 1007.28 1007.24 1007.45 1007.73 1007.91 1008.00 1008.50 1008.88 1009.06 1009.58 1009.77 1009.94 1010.14 1010.24 1010.24 1010.19 1010.10 1009.82 1010.15
Wind_Speed
14 12 11 10 10 10 7 5 6 7 8 8 9 11 11 13 14 7 4 1 2 1 7 3 3 1 2 3 2 3 3 4 4 4 3 3 3 2 1 3 2 4 4 3 3 2 5 2 3 6 7 2 4 4
13 12 11 10 10 9 6 6 6 6 6 7 9 11 9 11 12 8 2 2 1 3 6 2 6 6 4 6 5 2 3 2 4 5 1 3 1 1 3 3 1 1 5 4 6 5 4 4 3 1 3 5 3 4
13 12 11 11 10 8 7 5 6 6 5 7 8 10 9 10 10 8 2 3 2 2 6 4 3 1 1 7 5 4 3 3 1 2 4 2 2 4 4 5 1 1 2 3 3 3 3 4 1 2 4 5 4 3
13 12 12 11 11 9 7 6 6 7 3 6 9 9 9 9 9 7 2 1 1 1 0 7 3 4 3 2 4 4 5 4 5 3 3 3 2 3 4 3 3 4 3 4 1 4 2 3 0 4 4 5 4 3
13 12 13 12 11 9 7 6 5 4 4 6 8 9 9 9 9 4 3 3 1 2 3 6 8 3 6 2 6 5 5 4 2 2 3 3 2 3 1 2 3 5 7 6 7 8 5 5 3 3 5 4 4 4
13 12 13 12 11 9 7 6 5 4 5 7 8 9 10 9 9 1 2 1 1 2 2 4 4 4 5 5 6 6 4 4 3 4 2 2 3 3 3 3 6 4 3 5 4 5 4 2 4 3 5 4 3 2
13 14 14 13 11 8 7 6 5 4 5 7 9 9 9 8 2 2 3 1 2 2 2 5 6 4 3 3 3 2 3 2 3 2 1 2 1 4 3 3 6 5 6 5 4 8 3 3 5 4 5 5 3 2
14 14 13 12 11 9 7 6 4 4 6 8 9 10 10 9 5 4 3 6 6 2 2 0 6 4 4 1 2 2 3 3 4 2 1 2 2 2 3 8 7 4 3 1 7 1 2 2 3 3 1 1 1 3
16 15 13 11 10 8 7 6 5 6 6 8 10 12 2 2 0 2 4 10 1 3 2 2 2 3 4 2 1 3 2 2 2 1 2 3 0 4 8 7 5 7 8 7 2 1 3 4 6 3 3 3 2 4
16 14 13 11 10 8 7 6 2 4 7 8 3 2 1 2 5 2 2 3 3 3 3 3 1 4 2 2 2 2 2 2 2 4 2 2 5 6 3 5 5 4 6 6 5 3 2 2 2 1 1 2 2 3
15 13 11 10 8 8 8 6 1 5 3 0 0 1 2 7 2 3 0 1 1 2 2 3 5 2 1 2 2 0 3 0 2 4 3 1 4 4 7 4 3 6 3 5 5 6 5 3 1 1 2 4 4 5
12 10 9 8 8 8 7 6 2 2 1 2 1 2 2 3 3 2 2 2 3 5 3 4 4 5 2 2 3 1 3 2 4 1 2 2 4 3 4 6 7 8 9 10 8 7 7 7 6 5 5 5 4 4
11 8 8 8 8 8 7 6 3 2 3 1 0 1 3 0 2 5 5 3 3 3 3 2 2 2 1 2 3 2 3 4 1 1 4 4 2 1 3 4 7 6 8 7 7 6 6 6 6 5 4 4 5 5
10 8 8 7 7 7 7 5 2 1 1 1 3 0 4 3 4 5 3 3 4 2 2 2 2 2 1 3 2 3 2 2 0 2 4 2 1 2 2 2 5 4 6 6 6 6 7 6 5 5 5 5 5 7
9 10 8 6 6 8 6 4 3 1 1 1 2 4 5 3 3 4 3 2 3 1 2 2 2 2 2 3 2 3 2 3 3 2 2 3 2 1 2 2 5 4 4 5 3 4 5 4 4 4 5 5 6 8
11 9 2 8 8 8 6 3 2 1 1 1 1 2 2 0 2 3 2 1 2 2 2 3 2 2 1 3 2 4 3 3 2 3 2 2 2 2 3 3 3 4 5 5 4 3 3 5 5 4 4 7 8 9
5 2 8 8 8 7 5 0 1 1 1 2 2 1 1 3 3 2 2 3 3 2 3 3 3 2 2 2 2 3 4 4 3 3 2 4 4 3 4 4 4 5 5 5 4 3 3 3 4 4 6 9 8 8
1 2 11 12 6 4 1 0 1 2 3 2 1 3 2 3 2 3 2 3 4 2 1 1 2 3 3 3 2 3 3 2 2 2 3 3 3 4 4 5 5 6 6 6 5 3 3 5 4 2 3 5 4 5
2 6 13 8 2 1 2 1 0 1 2 1 2 2 3 3 3 4 3 3 1 1 2 1 3 3 4 4 4 3 2 3 3 3 3 3 5 4 4 3 5 6 6 6 5 3 3 2 1 2 2 3 3 3
13 13 10 6 3 1 2 2 1 1 1 3 1 2 3 3 2 2 1 1 1 2 1 2 4 4 5 4 4 3 3 3 3 1 3 3 3 3 4 5 4 5 4 4 4 4 3 1 1 1 1 2 3 4
6 2 3 2 2 3 1 2 0 3 2 2 2 2 3 1 2 2 3 3 2 4 4 4 4 4 4 2 3 2 3 5 5 5 5 3 2 4 3 2 5 4 4 4 4 4 4 4 3 2 1 1 2 2
2 4 1 1 1 1 2 1 2 1 1 3 3 1 2 2 3 4 2 2 4 5 5 5 4 4 3 4 5 6 5 6 5 3 2 2 3 2 3 4 4 4 5 5 4 5 5 4 4 3 3 3 3 3
3 1 1 1 3 4 4 1 1 1 1 3 2 2 3 3 4 1 2 4 5 5 6 6 7 7 7 6 4 5 6 7 5 5 5 5 5 4 4 4 5 6 6 6 5 5 5 5 5 4 3 3 3 4
2 2 2 1 2 2 1 2 2 2 2 2 2 4 3 3 0 1 4 4 4 1 3 6 3 2 1 0 3 5 6 5 5 4 5 4 4 5 6 6 4 6 5 3 5 5 4 5 5 3 3 4 4 4
5 2 2 3 2 1 2 2 3 2 4 5 4 3 3 1 1 3 4 4 2 2 2 2 2 4 4 3 3 5 5 6 6 6 4 6 3 2 2 3 2 3 5 5 5 6 5 4 4 4 4 4 6 6
1 4 5 3 2 3 3 2 3 3 3 3 4 2 0 1 2 5 3 2 2 1 2 1 0 1 2 4 3 2 3 3 4 3 3 4 5 5 5 4 3 3 6 4 5 7 7 6 6 7 6 7 8 6
2 4 4 3 2 2 2 2 2 1 2 3 2 2 2 3 4 3 3 2 2 3 3 3 3 3 3 3 3 3 3 3 4 2 2 3 3 4 3 3 4 5 5 8 7 7 9 8 6 6 5 4 5 5
3 1 4 2 2 3 2 2 3 4 3 3 1 2 2 3 3 3 3 5 7 7 6 4 4 4 4 4 2 1 2 1 2 3 2 2 2 2 2 1 3 4 1 5 7 7 6 5 5 5 5 6 5 4
3 2 3 3 3 4 5 5 3 2 2 3 1 1 2 4 3 5 5 4 5 4 1 2 3 2 1 0 0 1 2 3 4 2 4 2 3 1 4 4 2 2 3 5 8 6 7 4 4 4 5 4 5 2
4 4 3 3 3 4 4 5 2 2 1 3 2 2 3 3 5 5 5 3 3 2 3 3 3 3 3 3 3 2 3 3 3 3 4 3 4 3 2 2 2 3 4 2 2 2 4 4 3 2 3 2 3 3
3 5 3 3 3 3 4 2 2 2 2 3 3 2 3 3 3 2 3 3 3 3 4 4 3 2 4 4 3 2 1 3 6 6 4 3 3 3 3 4 4 4 3 4 4 3 3 2 2 3 4 5 6 6
3 5 2 2 1 2 3 3 3 3 4 3 2 3 2 2 3 4 3 4 4 4 3 2 3 1 1 1 1 1 3 4 5 4 5 3 4 4 4 4 5 3 5 5 4 4 4 5 3 3 4 5 6 6
3 3 3 2 2 2 1 1 0 1 1 1 1 0 1 1 1 3 2 1 1 1 3 3 2 1 2 5 5 2 4 3 4 4 4 4 5 7 4 3 4 4 5 6 5 5 6 7 4 5 4 3 5 6
Wind_Direction
223 223 232 239 241 244 229 252 279 300 311 319 333 338 344 347 348 356 276 275 91 213 278 222 279 332 37 64 109 279 32 342 43 76 144 189 134 238 15 245 214 185 152 197 101 124 242 69 141 158 209 53 123 139
217 218 228 230 233 215 217 245 272 287 304 314 329 337 344 345 348 7 305 335 335 175 249 282 261 265 213 188 146 360 174 197 190 97 68 93 140 79 156 247 2 254 180 190 166 219 269 286 274 195 151 127 133 145
211 215 222 221 207 201 215 243 270 280 293 309 322 331 335 336 343 358 284 299 8 7 303 353 284 302 69 189 175 124 277 191 97 162 145 136 196 127 176 241 249 290 139 105 77 303 332 328 341 79 90 104 118 115
204 210 216 205 191 199 213 238 259 274 278 306 322 325 328 327 327 343 293 248 115 117 69 283 341 308 301 206 174 155 150 63 89 59 95 130 178 162 208 222 176 202 127 138 288 285 318 302 219 118 100 113 132 154
203 209 207 189 187 198 210 224 249 269 285 310 318 320 324 325 317 300 246 241 220 141 228 279 304 286 302 223 159 114 111 100 85 63 85 224 186 118 15 56 262 189 182 161 217 208 163 207 202 162 148 164 162 154
202 206 193 180 186 191 210 224 233 248 281 306 311 314 320 327 339 358 25 291 260 157 92 320 297 317 327 79 106 105 102 97 94 131 205 265 253 109 131 213 260 246 232 176 215 167 177 154 183 161 165 163 146 127
201 193 176 175 178 188 204 219 220 249 282 300 305 305 308 318 354 170 198 210 128 18 80 318 325 302 317 77 48 60 39 89 107 125 182 197 286 88 118 203 273 248 234 195 182 118 57 207 203 197 181 182 166 137
190 172 165 170 176 187 200 202 218 260 288 298 300 298 296 293 272 297 258 235 152 147 79 212 274 348 359 83 113 336 77 34 16 150 51 176 19 62 264 246 265 314 350 233 195 282 194 154 145 176 149 95 214 270
166 161 163 172 175 180 189 198 223 257 288 301 303 300 349 62 102 257 99 130 164 144 175 132 195 247 358 14 92 40 64 87 304 168 244 103 347 223 226 231 255 221 195 210 135 112 112 147 167 179 192 215 271 294
153 154 159 168 177 181 190 213 220 294 299 306 313 51 13 232 286 89 6 24 16 341 47 206 119 265 82 4 36 86 23 138 153 250 95 116 254 261 302 254 249 256 205 134 124 157 116 88 168 222 308 351 299 298
145 153 161 167 179 187 197 170 234 323 6 195 123 202 272 316 71 36 83 114 301 285 196 237 185 216 293 100 166 172 157 142 107 261 137 297 280 278 327 1 317 238 214 159 114 98 91 104 131 352 7 35 12 2
145 153 162 173 177 172 176 153 137 56 32 267 282 290 311 54 40 126 235 310 196 230 220 183 214 195 272 98 99 330 121 61 225 149 90 263 258 295 7 40 45 65 75 67 60 64 68 62 43 39 30 16 2 329
147 153 159 164 163 169 168 154 176 247 331 175 84 93 71 265 151 186 195 234 245 211 220 185 186 175 39 66 70 103 123 220 73 84 227 226 256 47 87 76 64 57 76 68 57 66 68 69 51 41 356 336 322 313
137 139 141 150 154 166 152 150 178 282 248 173 143 224 178 201 235 202 202 206 238 189 180 157 122 159 185 89 138 110 222 94 128 212 235 295 64 118 100 70 104 80 74 77 77 67 55 38 13 0 359 340 333 324
140 144 143 158 165 150 143 159 190 227 189 159 178 210 216 251 266 246 244 265 265 201 120 101 67 104 27 98 24 89 129 242 211 229 241 242 177 153 152 153 116 112 95 86 82 67 54 30 17 2 1 349 346 338
130 117 131 153 144 143 149 159 205 221 80 72 234 287 267 18 304 352 12 300 351 281 123 74 99 85 81 113 126 204 171 219 232 228 232 209 225 196 194 178 134 117 114 110 94 84 57 30 17 2 339 6 356 344
126 113 158 149 144 138 147 275 121 107 246 203 253 250 225 263 252 281 312 328 332 84 115 125 182 158 94 94 228 182 195 194 188 204 208 209 195 197 180 188 167 153 143 133 110 85 76 55 41 13 11 7 6 0
106 125 145 134 124 143 156 56 146 179 217 222 212 269 215 231 275 285 266 309 16 43 71 132 138 139 183 189 232 225 216 215 218 214 220 218 230 252 232 215 179 156 138 127 123 117 79 67 47 354 331 347 330 357
126 129 133 116 72 169 122 134 258 200 229 267 265 258 244 263 251 263 277 309 286 249 136 131 170 180 207 208 200 211 227 207 190 220 229 222 234 228 276 221 156 155 155 147 145 146 129 114 162 300 342 354 8 357
112 109 93 66 1 131 111 113 61 129 241 249 271 252 230 227 257 265 245 97 49 8 351 198 206 207 183 205 196 199 211 165 137 31 307 288 259 268 228 204 192 151 131 123 147 137 127 102 260 269 347 18 17 354
80 91 82 354 6 61 91 115 191 201 237 245 245 201 261 310 268 214 225 154 128 211 222 209 220 234 197 214 201 183 197 159 203 188 211 261 258 213 217 215 152 159 155 174 178 163 164 187 208 206 247 293 287 293
106 169 115 223 24 53 67 276 173 286 205 255 306 211 258 249 235 225 150 160 218 216 196 186 208 214 229 217 221 209 226 188 218 230 246 190 258 229 240 199 159 190 203 195 182 183 194 197 194 203 227 263 285 297
137 61 55 37 43 47 275 40 339 267 247 267 327 279 249 249 230 117 233 215 242 221 200 200 211 204 205 229 201 219 209 202 218 225 236 229 225 209 227 222 186 177 192 212 193 183 193 187 202 207 220 258 284 298
329 51 44 44 117 264 326 246 203 255 268 263 229 274 257 234 293 174 243 242 245 286 188 229 201 227 34 195 211 226 233 186 227 253 220 200 226 246 207 232 190 201 195 184 177 177 180 208 205 208 224 255 266 273
71 309 129 262 193 231 232 242 222 217 239 200 199 267 264 48 237 248 235 269 301 303 295 303 207 198 212 240 263 250 217 190 209 225 240 194 192 117 226 231 188 163 165 156 155 178 199 197 213 222 228 240 265 287
215 196 179 220 175 196 226 259 205 222 225 248 231 261 237 214 257 249 237 255 265 290 307 323 11 315 249 211 227 252 244 185 166 205 269 192 191 196 199 180 177 195 202 190 157 185 198 205 209 217 237 245 246 258
227 222 215 247 267 259 261 285 304 333 269 250 287 296 311 264 252 264 270 234 249 248 238 238 225 238 252 276 246 241 233 188 199 228 308 273 216 174 150 169 186 212 165 190 190 190 195 205 206 211 229 249 238 234
244 194 197 209 212 209 221 231 234 224 233 220 320 311 301 301 286 255 248 277 277 287 278 225 193 199 214 228 229 237 257 96 17 51 48 65 94 153 167 211 179 95 229 188 192 194 189 196 201 207 219 238 253 213
238 217 187 233 220 228 216 205 234 239 153 118 84 270 248 240 263 271 277 275 289 294 263 163 200 185 224 264 213 173 142 136 126 114 68 38 24 281 163 164 194 226 210 183 192 192 212 199 205 212 229 239 255 228
230 182 226 225 209 217 233 186 196 146 162 185 192 287 266 246 261 263 272 292 309 268 215 166 140 145 153 148 163 202 222 210 205 158 160 207 229 248 231 186 71 48 49 59 146 116 138 155 135 176 199 199 220 192
194 174 225 226 253 227 213 158 160 143 172 206 211 224 267 300 315 294 309 342 353 11 88 84 92 132 124 138 140 124 301 223 221 226 215 208 227 213 194 181 169 174 135 125 138 153 154 136 159 185 194 205 222 213
197 216 243 252 200 112 127 184 143 202 200 215 227 220 297 302 316 308 341 12 29 32 24 79 108 185 313 311 240 254 244 291 327 344 290 229 205 202 161 179 194 164 151 160 163 141 124 109 54 344 360 14 60 16
205 209 229 259 161 153 165 131 212 327 275 344 338 330 291 333 348 286 351 66 125 342 349 325 321 352 100 116 113 79 50 43 22 21 64 102 124 128 133 133 109 107 116 104 96 103 78 45 347 310 284 241 129 143